GOES 16 (41866 NORAD) Tracking and Keplerian Element Data

This shows tracking and keplerian element data for the satellite.

Feedback or suggestion? Click here.




ElementValue
Catalog41866
NameGOES 16
Epoch Orbit2148
Epoch Day269.58104877
Epoch Year2022
RAAN288.5363
Inclination0.0733
Eccentricity4.77E-05
Argument of Perigee297.7928
Mean Anonmoly273.0365
Mean Motion1.00272719
Decay Rate-2.46E-06
L11 41866U 16071A 22269.58104877 -.00000246 00000+0 00000+0 0 9992
L22 41866 0.0733 288.5363 0000477 297.7928 273.0365 1.00272719 21487

Live tracking and technical data element details for GOES 16 (NORAD 41866). GOES 16 can be tracked NOW for your location showing map with azimuth and elevation plus other details from your city location.

Track the satellite on the map from your city or location and see movement details for azimuth, elevation, latitude, longitude, range, height, and movement on the map or in text.







IsCatalogInMostPopularTable: catalog: 41866, numindb: 606
Update: records affected: 1



GetName: 41866 GOES 16

Hit Count: updated at: Thu, 29 Sep 2022 12:11:33 GMT